Roros Lufthavn, Norway

3:06 PM CET on December 08, 2019 (GMT +0100)
Roros

Weather History for ENRO - October, 2019

Change the Weather History Date:

Thursday, October 31, 2019

  Actual Average Record
Temperature  
Mean Temperature 32 °F -  
Max Temperature 35 °F 33 °F 51 °F (2005)
Min Temperature 30 °F 26 °F -2 °F (2012)
Degree Days  
Heating Degree Days 32    
Moisture  
Dew Point 32 °F    
Average Humidity 96    
Maximum Humidity 100    
Minimum Humidity 81    
Precipitation  
Precipitation 0.00 in - - ()
Sea Level Pressure  
Sea Level Pressure 29.99 in    
Wind  
Wind Speed 6 mph ()    
Max Wind Speed 14 mph    
Max Gust Speed -    
Visibility 5.9 miles    
Events Rain , Snow    
Averages and records for this station are not official NWS values.
T = Trace of Precipitation, MM = Missing Value Source: Averaged Metar Reports

Daily Weather History Graph

Daily Weather History Graph

Search for Another Location

Airport or City:

Astronomy

Oct. 31, 2019 Rise Set
Actual Time 7:44 AM CET 4:10 PM CET
Civil Twilight 6:55 AM CET 4:59 PM CET
Nautical Twilight 6:01 AM CET 5:53 PM CET
Astronomical Twilight 5:09 AM CET 6:45 PM CET
Moon 12:20 PM CET (10/31) 5:45 PM CET (10/31)
Length of Visible Light 10h 04m
Length of Day
8h 25m
Waxing Crescent, 14% of the Moon is Illuminated
Oct 31
Waxing Crescent
Nov 4
First Quarter
Nov 12
Full
Nov 19
Last Quarter
Nov 26
New

Hourly Weather History & Observations

Time (CET) Temp. Windchill Dew Point Humidity Pressure Visibility Wind Dir Wind Speed Gust Speed Precip Events Conditions
12:20 AM 32.0 °F 24.2 °F 32.0 °F 100% 29.98 in 2.5 mi WSW 9.2 mph - N/A Snow Light Snow
12:50 AM 32.0 °F 24.2 °F 32.0 °F 100% 29.98 in - SW 9.2 mph - N/A Snow Light Snow
1:20 AM 32.0 °F 24.8 °F 32.0 °F 100% 29.98 in 3.7 mi WSW 8.1 mph - N/A Rain , Snow Light Rain
1:50 AM 33.8 °F 27.0 °F 32.0 °F 93% 29.98 in 6.2 mi West 8.1 mph - N/A Rain Light Rain
2:20 AM 33.8 °F 29.6 °F 33.8 °F 100% 29.98 in - West 4.6 mph - N/A Snow Light Snow
2:50 AM 32.0 °F 22.1 °F 30.2 °F 93% 30.01 in 5.6 mi WNW 13.8 mph - N/A Rain , Snow Light Rain
3:20 AM 32.0 °F 27.5 °F 32.0 °F 100% 29.98 in - West 4.6 mph - N/A Snow Light Snow
3:50 AM 33.8 °F 26.4 °F 32.0 °F 93% 29.98 in 6.2 mi West 9.2 mph - N/A Rain , Snow Light Rain
4:20 AM 33.8 °F 25.3 °F 30.2 °F 87% 29.98 in 6.2 mi WNW 11.5 mph - N/A   Overcast
4:50 AM 30.2 °F 25.4 °F 28.4 °F 93% 29.98 in 6.2 mi West 4.6 mph - N/A Rain Light Freezing Rain
5:20 AM 32.0 °F 25.6 °F 30.2 °F 93% 29.98 in 6.2 mi WSW 6.9 mph - N/A   Mostly Cloudy
5:50 AM 32.0 °F 26.4 °F 30.2 °F 93% 29.98 in 5.0 mi SW 5.8 mph - N/A Snow Light Snow Showers
6:20 AM 30.2 °F 25.4 °F 30.2 °F 100% 29.98 in 3.7 mi SW 4.6 mph - N/A Snow Light Snow
6:50 AM 30.2 °F 24.3 °F 30.2 °F 100% 29.98 in 6.2 mi SW 5.8 mph - N/A Snow Light Snow
7:20 AM 32.0 °F 27.5 °F 30.2 °F 93% 30.01 in 6.2 mi SW 4.6 mph - N/A Snow Light Snow Showers
7:50 AM - - - N/A% 30.01 in 6.2 mi SW 5.8 mph - N/A   Unknown
9:20 AM 32.0 °F 27.5 °F 32.0 °F 100% 30.01 in 6.2 mi WSW 4.6 mph - N/A Snow Light Snow Showers
9:50 AM 32.0 °F 27.5 °F 32.0 °F 100% 30.01 in 6.2 mi SW 4.6 mph - N/A Snow Light Snow
10:20 AM 33.8 °F 30.8 °F 32.0 °F 93% 30.01 in 6.2 mi WSW 3.5 mph - N/A   Mostly Cloudy
10:50 AM 33.8 °F 29.6 °F 32.0 °F 93% 30.01 in 6.2 mi SW 4.6 mph - N/A   Mostly Cloudy
11:20 AM 32.0 °F 26.4 °F 32.0 °F 100% 30.01 in 6.2 mi WSW 5.8 mph - N/A   Mostly Cloudy
11:50 AM 33.8 °F 30.8 °F 32.0 °F 93% 30.01 in 6.2 mi NNW 3.5 mph - N/A   Mostly Cloudy
12:50 PM 35.6 °F 29.9 °F 30.2 °F 81% 30.01 in 6.2 mi West 6.9 mph - N/A   Mostly Cloudy
1:20 PM 33.8 °F 27.7 °F 30.2 °F 87% 30.01 in 6.2 mi West 6.9 mph - N/A   Mostly Cloudy
1:50 PM 33.8 °F 28.6 °F 32.0 °F 93% 30.01 in 6.2 mi West 5.8 mph - N/A   Mostly Cloudy
2:20 PM 33.8 °F 30.8 °F 32.0 °F 93% 30.01 in 6.2 mi NW 3.5 mph - N/A   Mostly Cloudy
2:50 PM 35.6 °F - 32.0 °F 87% 30.01 in 6.2 mi Variable 2.3 mph - N/A   Mostly Cloudy
3:50 PM 33.8 °F 27.0 °F 32.0 °F 93% 30.01 in 6.2 mi SW 8.1 mph - N/A   Mostly Cloudy
4:20 PM 33.8 °F 26.4 °F 33.8 °F 100% 30.01 in 6.2 mi SW 9.2 mph - N/A Rain Light Rain
5:20 PM 32.0 °F 25.6 °F 32.0 °F 100% 30.01 in 6.2 mi SW 6.9 mph - N/A Rain Light Rain Showers
5:50 PM 32.0 °F 25.6 °F 32.0 °F 100% 30.01 in 6.2 mi SW 6.9 mph - N/A   Mostly Cloudy
6:20 PM 32.0 °F 26.4 °F 32.0 °F 100% 30.01 in 6.2 mi SW 5.8 mph - N/A   Mostly Cloudy
6:50 PM 32.0 °F 28.7 °F 32.0 °F 100% 30.01 in 6.2 mi SSW 3.5 mph - N/A Rain Light Rain Showers
7:20 PM 32.0 °F - 32.0 °F 100% 30.01 in 6.2 mi Variable 1.2 mph - N/A   Mostly Cloudy
8:20 PM 32.0 °F 27.5 °F 32.0 °F 100% 29.98 in 6.2 mi SSW 4.6 mph - N/A   Mostly Cloudy
8:50 PM 32.0 °F 26.4 °F 32.0 °F 100% 29.98 in 6.2 mi SSW 5.8 mph - N/A   Mostly Cloudy
9:20 PM 32.0 °F 28.7 °F 32.0 °F 100% 29.98 in 6.2 mi South 3.5 mph - N/A   Overcast
9:50 PM 32.0 °F 28.7 °F 32.0 °F 100% 29.98 in 6.2 mi SSW 3.5 mph - N/A   Overcast
10:50 PM 32.0 °F - 32.0 °F 100% 29.95 in - Variable 2.3 mph - N/A Rain , Snow Light Rain
11:20 PM 30.2 °F - 30.2 °F 100% 29.95 in 6.2 mi Variable 2.3 mph - N/A Snow Light Snow Showers
11:50 PM 30.2 °F - 30.2 °F 100% 29.95 in 6.2 mi Variable 2.3 mph - N/A Rain Light Freezing Rain